Starlink 11109

operational
NORAD ID: 60306 Int'l Des: 2024-133 Owner: SPXS Country: US Constellation: starlink
LEOCIRCULAR

Über Starlink 11109

Beschreibung wird geladen...

Live-Position

3D-Globus wird geladen...

Nächste Überflüge

Höhenverlauf

Altitude vs Time

uPlot chart will show altitude changes over time

Zweizeiliger Elementsatz

1 60306U 24133F 25304.75065146 -.00003114 00000-0 -20878-4 0 9996
2 60306 53.1571 61.7806 0000825 86.4279 273.6833 15.69690244 73488
Epoch: 31. Okt. 2025 • Age: 45 hours

Aktueller Status

Höhe 365.8 km
Geschwindigkeit 7.70 km/s
Subsatellitenpunkt 53.31°N, 120.47°W
Startdatum 28. Juli 2024
Alter 1.2 years
Typ internet

Technische Details

Klassifizierung Payload
Masse 960.00 kg
Trockenmasse 910.00 kg
Gesamtmasse 960.00 kg
Länge 0.30 m
Durchmesser 4.10 m
Spannweite 29.00 m
Form Box + pan
Hersteller SPXS
Bus-Typ Starlink V2MD
Phasenstatus In Orbit
Besitzer/Staat SPXS/US

Große Konstellationen

Loading constellations...